GW5169 Weather Reports


time (UTC)temp
C
wind
direction
speed
KPH
gust
KPH
rain 1hr
cm
rain 24hr
cm
rain mn
cm
humidity
%
barometer
mb
20260504034855 15 337 3.2 4.8 0.00 0.03 0.03 41 1007.9
20260504034353 16 266 4.8 4.8 0.00 0.03 0.03 41 1007.9
20260504033850 16 225 3.2 4.8 0.00 0.03 0.03 41 1007.9
20260504033348 16 318 3.2 3.2 0.00 0.03 0.03 41 1008.0
20260504032844 16 282 3.2 4.8 0.00 0.03 0.03 41 1007.9
20260504032341 16 271 4.8 4.8 0.00 0.03 0.03 41 1008.1
20260504031838 16 299 4.8 4.8 0.00 0.03 0.03 40 1008.0
20260504031335 16 283 1.6 3.2 0.00 0.03 0.03 40 1008.1
20260504030831 16 280 3.2 3.2 0.00 0.03 0.03 40 1008.0
20260504030329 16 296 3.2 3.2 0.00 0.03 0.03 41 1007.9
20260504025825 16 262 3.2 3.2 0.00 0.03 0.03 42 1007.9
20260504025322 16 254 1.6 1.6 0.00 0.03 0.03 42 1008.0
20260504024819 16 305 1.6 1.6 0.00 0.03 0.03 43 1007.9
20260504024315 16 273 1.6 1.6 0.00 0.03 0.03 43 1008.0
20260504023812 16 63 0.0 0.0 0.00 0.03 0.03 42 1007.9
20260504023309 16 293 1.6 1.6 0.00 0.03 0.03 41 1007.8
20260504022805 16 19 0.0 1.6 0.00 0.03 0.03 41 1007.7
20260504022301 16 2 1.6 1.6 0.00 0.03 0.03 41 1007.7
20260504021758 17 17 1.6 1.6 0.00 0.03 0.03 39 1007.7
20260504021256 17 319 1.6 3.2 0.00 0.03 0.03 38 1007.7
20260504020752 17 2 1.6 1.6 0.00 0.03 0.03 38 1007.9
20260504020249 17 324 3.2 3.2 0.00 0.03 0.03 38 1007.7
20260504015745 17 331 4.8 4.8 0.00 0.03 0.03 38 1007.6
20260504015242 17 35 1.6 3.2 0.00 0.03 0.03 37 1007.7
20260504014737 18 40 1.6 1.6 0.00 0.03 0.03 37 1007.6
20260504014234 18 307 1.6 3.2 0.00 0.03 0.03 35 1007.7
20260504013732 18 312 1.6 3.2 0.00 0.03 0.03 35 1007.6
20260504013229 19 260 3.2 4.8 0.00 0.03 0.03 34 1007.3
20260504012726 19 286 3.2 3.2 0.00 0.03 0.03 33 1007.5
20260504012224 20 291 6.4 11.3 0.00 0.03 0.03 33 1007.4
20260504011720 20 313 4.8 6.4 0.00 0.03 0.03 32 1007.2
20260504011217 20 273 1.6 3.2 0.00 0.03 0.03 32 1007.2
20260504010713 20 328 6.4 6.4 0.00 0.03 0.03 31 1007.1
20260504010209 20 269 4.8 6.4 0.00 0.03 0.03 31 1007.0
20260504005705 21 279 4.8 6.4 0.00 0.03 0.03 30 1006.8
20260504005203 21 289 8.0 9.7 0.00 0.03 0.03 30 1006.9
20260504004700 21 251 9.7 12.9 0.00 0.03 0.03 29 1007.0
20260504004157 21 295 6.4 6.4 0.00 0.03 0.03 29 1007.1
20260504003653 21 265 6.4 9.7 0.00 0.03 0.03 28 1007.0
20260504003151 22 243 4.8 6.4 0.00 0.03 0.03 28 1006.9
20260504002647 22 243 3.2 4.8 0.00 0.03 0.03 27 1006.9
20260504002145 22 289 4.8 6.4 0.00 0.03 0.03 27 1006.9
20260504001643 22 281 8.0 9.7 0.00 0.03 0.03 27 1006.8
20260504001138 22 278 6.4 9.7 0.00 0.03 0.03 28 1006.9
20260504000636 22 281 6.4 6.4 0.00 0.03 0.03 27 1006.7
20260504000133 22 288 9.7 12.9 0.00 0.03 0.03 27 1006.8
20260503235631 22 324 9.7 11.3 0.00 0.03 0.03 27 1006.8
20260503235127 22 309 6.4 6.4 0.00 0.03 0.03 25 1006.8
20260503234626 22 297 9.7 11.3 0.00 0.03 0.03 24 1006.7
20260503234123 23 292 12.9 16.1 0.00 0.03 0.03 24 1006.6
20260503233620 23 349 8.0 11.3 0.00 0.03 0.03 25 1006.7
20260503233116 23 303 12.9 14.5 0.00 0.03 0.03 25 1006.6
20260503232613 23 298 8.0 12.9 0.00 0.03 0.03 25 1006.7
20260503232110 23 323 14.5 16.1 0.00 0.03 0.03 25 1006.7
20260503231608 23 335 8.0 9.7 0.00 0.03 0.03 25 1006.5
20260503231104 23 312 14.5 24.1 0.00 0.03 0.03 25 1006.8
20260503230601 23 297 14.5 16.1 0.00 0.03 0.03 25 1006.6
20260503230058 23 265 14.5 16.1 0.00 0.03 0.03 24 1006.7
20260503225555 23 291 12.9 16.1 0.00 0.03 0.03 25 1006.5
20260503225050 23 12 14.5 17.7 0.00 0.03 0.03 25 1006.6
20260503224548 23 258 11.3 16.1 0.00 0.03 0.03 25 1006.4
20260503224046 23 286 11.3 22.5 0.00 0.03 0.03 25 1006.5
20260503223544 23 301 20.9 27.4 0.00 0.03 0.03 27 1006.4
20260503223039 24 290 8.0 9.7 0.00 0.03 0.03 27 1006.3
20260503222537 23 305 8.0 9.7 0.00 0.03 0.03 27 1006.4
20260503222035 23 0 12.9 14.5 0.00 0.03 0.03 26 1006.4
20260503221533 23 265 8.0 11.3 0.00 0.03 0.03 26 1006.4
20260503221030 23 334 14.5 17.7 0.00 0.03 0.03 27 1006.4
20260503220526 23 302 8.0 9.7 0.00 0.03 0.03 27 1006.3
20260503220023 24 300 9.7 11.3 0.00 0.03 0.03 27 1006.3
20260503215520 24 280 16.1 22.5 0.00 0.03 0.03 27 1006.3
20260503215017 23 314 9.7 12.9 0.00 0.03 0.03 27 1006.4
20260503214516 23 270 11.3 12.9 0.00 0.03 0.03 28 1006.3
20260503214012 23 296 9.7 12.9 0.00 0.03 0.03 27 1006.4
20260503213510 23 251 12.9 17.7 0.00 0.03 0.03 27 1006.3
20260503213007 23 298 8.0 11.3 0.00 0.03 0.03 28 1006.3
20260503212504 23 281 9.7 12.9 0.00 0.03 0.03 28 1006.2
20260503212001 23 308 11.3 12.9 0.00 0.03 0.03 29 1006.4
20260503211458 24 304 16.1 24.1 0.00 0.03 0.03 30 1006.1
20260503210954 23 263 9.7 12.9 0.00 0.03 0.03 29 1006.2
20260503210451 23 294 14.5 20.9 0.00 0.03 0.03 28 1006.3
20260503205951 23 327 11.3 12.9 0.00 0.03 0.03 30 1006.4
20260503205449 23 251 4.8 6.4 0.00 0.03 0.03 30 1006.6
20260503204944 23 274 12.9 14.5 0.00 0.03 0.03 29 1006.4
20260503204442 24 270 12.9 17.7 0.00 0.03 0.03 28 1006.4
20260503203939 23 262 14.5 16.1 0.00 0.03 0.03 27 1006.2
20260503203437 23 263 14.5 17.7 0.00 0.03 0.03 28 1006.4
20260503202933 23 307 14.5 16.1 0.00 0.03 0.03 29 1006.6
20260503202431 24 306 6.4 9.7 0.00 0.03 0.03 29 1006.6
20260503201930 23 202 6.4 9.7 0.00 0.03 0.03 29 1006.8
20260503201426 23 285 16.1 17.7 0.00 0.03 0.03 29 1006.8
20260503200924 23 233 12.9 24.1 0.00 0.03 0.03 30 1006.7
20260503200420 23 263 20.9 25.7 0.00 0.03 0.03 29 1006.7
20260503195917 23 302 8.0 11.3 0.00 0.03 0.03 31 1006.8
20260503195414 23 292 6.4 9.7 0.00 0.03 0.03 30 1006.8
20260503194911 23 334 8.0 12.9 0.00 0.03 0.03 31 1007.0
20260503194407 23 284 14.5 17.7 0.00 0.03 0.03 31 1006.9
20260503193903 23 223 14.5 22.5 0.00 0.03 0.03 32 1007.0
20260503193359 22 268 4.8 6.4 0.00 0.03 0.03 33 1007.1
20260503192854 23 280 20.9 24.1 0.00 0.03 0.03 31 1007.1
20260503192350 23 332 16.1 17.7 0.00 0.03 0.03 34 1007.0
20260503191847 22 325 3.2 4.8 0.00 0.03 0.03 34 1007.2
20260503191344 22 269 16.1 22.5 0.00 0.03 0.03 33 1007.2
20260503190841 22 300 14.5 17.7 0.00 0.03 0.03 34 1007.2
20260503190338 22 276 9.7 11.3 0.00 0.03 0.03 34 1007.2
20260503185835 22 262 8.0 11.3 0.00 0.03 0.03 34 1007.3
20260503185331 22 329 1.6 3.2 0.00 0.03 0.03 34 1007.3
20260503184826 22 268 14.5 16.1 0.00 0.03 0.03 35 1007.3
20260503184322 21 277 17.7 24.1 0.00 0.03 0.03 35 1007.4
20260503183818 21 253 9.7 11.3 0.00 0.03 0.03 35 1007.5
20260503183315 21 258 12.9 16.1 0.00 0.03 0.03 36 1007.5
20260503182813 21 270 11.3 16.1 0.00 0.03 0.03 36 1007.5
20260503182312 21 270 17.7 20.9 0.00 0.03 0.03 36 1007.6
20260503181809 21 249 8.0 9.7 0.00 0.03 0.03 37 1007.8
20260503181306 20 137 9.7 12.9 0.00 0.03 0.03 36 1007.9
20260503180802 21 248 9.7 14.5 0.00 0.03 0.03 37 1008.0
20260503180300 20 279 4.8 11.3 0.00 0.03 0.03 37 1007.9
20260503175756 20 277 17.7 22.5 0.00 0.03 0.03 37 1008.1
20260503175254 20 237 3.2 4.8 0.00 0.03 0.03 37 1008.2
20260503174749 20 292 9.7 12.9 0.00 0.03 0.03 38 1008.3
20260503174248 20 302 19.3 25.7 0.00 0.03 0.03 37 1008.2
20260503173748 20 257 9.7 11.3 0.00 0.03 0.03 38 1008.4
20260503173244 20 280 14.5 16.1 0.00 0.03 0.03 38 1008.4
20260503172741 19 279 11.3 16.1 0.00 0.03 0.03 39 1008.3
20260503172238 20 344 12.9 17.7 0.00 0.03 0.03 38 1008.6
20260503171735 19 284 4.8 4.8 0.00 0.03 0.03 39 1008.4
20260503171232 19 136 3.2 4.8 0.00 0.03 0.03 38 1008.6
20260503170729 18 122 4.8 6.4 0.00 0.03 0.03 39 1008.6
20260503170226 18 26 8.0 11.3 0.00 0.03 0.03 39 1008.8
20260503160147 16 258 14.5 17.7 0.00 0.03 0.03 43 1009.4
20260503150617 15 209 12.9 22.5 0.00 0.03 0.03 44 1009.8
20260503150113 15 104 6.4 9.7 0.00 0.03 0.03 45 1009.9
20260503131007 11 192 6.4 6.4 0.00 0.03 0.03 61 1011.2
20260503130504 11 133 6.4 6.4 0.00 0.03 0.03 59 1011.5
20260503110355 10 132 4.8 9.7 0.00 0.03 0.03 62 1013.7
20260503090246 11 34 1.6 1.6 0.00 0.03 0.03 58 1014.6
20260503081208 12 282 14.5 22.5 0.00 0.00 0.00 47 1014.3
20260503080703 11 262 9.7 14.5 0.00 0.00 0.00 49 1014.1
20260503080200 11 262 9.7 12.9 0.00 0.00 0.00 49 1014.1
20260503072637 11 111 4.8 6.4 0.00 0.00 0.00 47 1014.2
20260503072134 11 47 4.8 6.4 0.00 0.00 0.00 47 1014.2
20260503071631 11 270 3.2 3.2 0.00 0.00 0.00 47 1014.2
20260503071127 11 349 3.2 4.8 0.00 0.00 0.00 47 1014.0
20260503070625 11 321 6.4 12.9 0.00 0.00 0.00 47 1014.1
20260503070123 11 51 3.2 3.2 0.00 0.00 0.00 47 1014.4
20260503055043 11 59 1.6 3.2 0.00 0.00 0.00 47 1014.9
20260503054539 11 248 3.2 4.8 0.00 0.00 0.00 46 1014.9
20260503054037 11 220 6.4 9.7 0.00 0.00 0.00 46 1015.0
20260503053535 11 46 1.6 3.2 0.00 0.00 0.00 46 1015.0
20260503053032 11 88 3.2 4.8 0.00 0.00 0.00 47 1015.0
20260503052529 11 124 3.2 6.4 0.00 0.00 0.00 47 1015.0
20260503052025 11 342 6.4 9.7 0.00 0.00 0.00 47 1015.1
20260503051520 11 180 3.2 4.8 0.00 0.00 0.00 47 1015.2
20260503051019 11 338 1.6 3.2 0.00 0.00 0.00 47 1015.2
20260503050514 11 304 4.8 9.7 0.00 0.00 0.00 47 1015.3
20260503050012 11 90 1.6 3.2 0.00 0.00 0.00 47 1015.2
20260503045509 11 97 3.2 3.2 0.00 0.00 0.00 47 1015.3
20260503045006 11 345 3.2 4.8 0.00 0.00 0.00 47 1015.3
20260503044502 11 326 3.2 4.8 0.00 0.00 0.00 47 1015.4
20260503044000 11 344 1.6 3.2 0.00 0.00 0.00 47 1015.3
20260503043456 11 84 1.6 1.6 0.00 0.00 0.00 47 1015.2
20260503042952 11 75 4.8 6.4 0.00 0.00 0.00 46 1015.5
20260503042449 11 328 1.6 3.2 0.00 0.00 0.00 47 1015.5
20260503041946 11 342 6.4 9.7 0.00 0.00 0.00 47 1015.5
20260503041443 11 36 4.8 6.4 0.00 0.00 0.00 47 1015.7
20260503040940 11 61 3.2 9.7 0.00 0.00 0.00 47 1015.6
20260503040437 11 105 1.6 3.2 0.00 0.00 0.00 47 1015.6
20260503035935 11 137 3.2 4.8 0.00 0.00 0.00 47 1015.7
20260503035431 11 162 3.2 4.8 0.00 0.00 0.00 46 1015.9